Regional Weather Roundup
Issued by NWS

Home | Current Version | Previous Version | Text Only | Print | Product List | Glossary Off
Versions: 1 2 3 4 5 6 7 8 9 10 11 12 13 14 15 16 17 18 19 20 21 22 23 24 25 26 27 28 29 30 31 32 33 34 35 36 37 38 39 40 41 42 43 44 45 46 47 48 49 50

000
ASUS45 KCYS 221810
RWRWY

WYOMING REGIONAL WEATHER ROUNDUP
NATIONAL WEATHER SERVICE CHEYENNE WY
1200 PM MDT FRI JUL 22 2016

NOTE:  "FAIR" INDICATES FEW OR NO CLOUDS BELOW 12,000 FEET
WITH NO SIGNIFICANT WEATHER AND/OR OBSTRUCTIONS TO VISIBILITY.

WYZ001-221900-
YELLOWSTONE NATIONAL PARK

CITY           SKY/WX    TMP DP  RH WIND       PRES   REMARKS
LK YELLOWSTONE   N/A     76  40  27 VRB7G18   30.39F
6HR MIN TEMP:  46; 6HR MAX TEMP:  77;

W YELLOWSTONE  NOT AVBL

$$
WYZ002>013-054>058-071-098>099-221900-
NORTHERN WYOMING

CITY           SKY/WX    TMP DP  RH WIND       PRES   REMARKS
JACKSON        SUNNY     81  48  32 CALM      30.28F
CODY           FAIR      88  39  18 W3        30.14S
GREYBULL       FAIR      95  40  14 E8        30.03F HX  91
6HR MIN TEMP:  64; 6HR MAX TEMP:  95;

WORLAND        FAIR      93  39  15 VRB3      30.06F
6HR MIN TEMP:  61; 6HR MAX TEMP:  94;

SHERIDAN       FAIR      95  42  16 NE7       30.04S HX  91
6HR MIN TEMP:  58; 6HR MAX TEMP:  95;

BUFFALO        FAIR     100  39  12 SE15      30.09F HX  95
6HR MIN TEMP:  69; 6HR MAX TEMP: 100;

GILLETTE       FAIR      98  39  13 S25G32    30.07F HX  93
6HR MIN TEMP:  69; 6HR MAX TEMP:  98;

HULETT         FAIR      99  43  14 SW15G25   30.09S HX  94
NEWCASTLE      FAIR      93  46  20 S16G24    30.13S

$$
WYZ014>020-022>026-101>103-221900-
CENTRAL WYOMING

CITY           SKY/WX    TMP DP  RH WIND       PRES   REMARKS
BIG PINEY      FAIR      80  41  24 E7        30.36F
6HR MIN TEMP:  52; 6HR MAX TEMP:  81;

PINEDALE       FAIR      79  36  21 E3        30.38F
DUBOIS         FAIR      79  32  18 S7        30.33S
LANDER         FAIR      83  45  26 SE5       30.21S
6HR MIN TEMP:  63; 6HR MAX TEMP:  85;

RIVERTON       FAIR      83  47  28 S6        30.21F
6HR MIN TEMP:  60; 6HR MAX TEMP:  83;

CASPER         FAIR      87  47  24 S13       30.21F
6HR MIN TEMP:  63; 6HR MAX TEMP:  87; 6HR PCP:  0.07;

DOUGLAS          N/A    N/A N/A N/A MISG      30.19F

$$
WYZ021-027>030-104>119-221900-
SOUTHERN WYOMING

CITY           SKY/WX    TMP DP  RH WIND       PRES   REMARKS
EVANSTON       FAIR      86  39  19 SW14G24   30.36S
6HR MIN TEMP:  64; 6HR MAX TEMP:  87;

KEMMERER         N/A     82  37  20 CALM      30.38S
FORT BRIDGER   FAIR      83  40  21 W5        30.39F
ROCK SPRINGS   FAIR      83  40  21 CALM      30.35S
6HR MIN TEMP:  58; 6HR MAX TEMP:  84;

DIXON          FAIR      82  47  29 S9        30.39F
RAWLINS        FAIR      84  42  22 SW9G21    30.35F
6HR MIN TEMP:  50; 6HR MAX TEMP:  85;

SARATOGA       FAIR      82  41  23 W8        30.39S
LARAMIE        FAIR      81  42  25 SW9       30.38F
6HR MIN TEMP:  53; 6HR MAX TEMP:  82;

CHEYENNE       FAIR      88  44  21 VRB3      30.29F
6HR MIN TEMP:  66; 6HR MAX TEMP:  89;

TORRINGTON     FAIR      90  54  29 VRB3      30.13F
6HR MIN TEMP:  68; 6HR MAX TEMP:  92;

PINE BLUFFS    FAIR      88  46  23 E3        30.23F

$$



USA.gov is the U.S. government's official web portal to all federal, state and local government web resources and services.